Estación municipal de Cànoves i Samalús (Vallès Oriental, P.N.del Montseny)

Consulta los datos en tiempo real de la estación municipal de Cànoves i Samalús





Hora UTC 04:30
Temperatura 8.3 ºC
Humedad 97.7 %
Presión 1010.5 hPa
Pluja 0.1 mm
Velocidad viento 3.1 km/h
Dirección viento NNW
Radiación solar 1.4 W/m²

Webcam

Datos diarios 2026-05-05



Hora UTC (invierno +1h; verano +2h)
Temperatura (ºC) Humedad (%) Presión (hPa) Velocidad viento (km/h) Precipitación (mm) Radiación solar (W/m²)
Hora UTC Aire Humedad Presión Vel. Dir. Vel. Max Dir. Intent. máx 5 min. Rad. Sol.
00:05 10.0 96.0 1010.5 1.9 WNW 1.9 NW 0.0 0.1
00:10 10.0 96.0 1010.5 1.1 NNW 2.8 NW 0.0 0.1
00:15 10.0 96.1 1010.5 1.4 NNW 4.2 NNW 0.0 0.1
00:20 9.8 96.0 1010.5 0.7 NW 3.2 NW 0.0 0.1
00:25 9.7 95.9 1010.5 1.4 S 4.2 SSE 0.0 0.1
00:30 9.5 95.8 1010.5 1.6 S 3.9 S 0.0 0.1
00:35 9.5 96.2 1010.6 0.6 NNW 2.8 NW 0.0 0.1
00:40 9.5 96.2 1010.6 2.1 NW 4.6 WNW 0.0 0.1
00:45 9.6 96.6 1010.6 1.2 WNW 3.9 WNW 0.0 0.1
00:50 9.7 96.7 1010.6 3.2 NNW 5.6 N 0.0 0.1
00:55 9.8 96.7 1010.5 5.4 NW 8.5 NNW 0.0 0.1
01:00 9.9 96.8 1010.6 3.8 NW 6.4 WSW 0.0 0.1
01:05 9.9 96.8 1010.6 4.2 NNW 7.8 N 0.0 0.1
01:10 9.8 96.4 1010.5 3.6 NNW 8.5 NNW 0.0 0.1
01:15 9.6 96.3 1010.4 2.2 NW 3.5 WNW 0.0 0.1
01:20 9.5 96.5 1010.4 2.7 NNW 4.6 N 0.0 0.1
01:25 9.4 96.5 1010.4 2.4 NW 4.2 NW 0.0 0.1
01:30 9.5 96.9 1010.4 2.3 NNW 4.2 NW 0.0 0.1
01:35 9.5 96.9 1010.3 2.8 NW 6.0 N 0.1 0.1
01:40 9.6 97.0 1010.4 4.8 NW 7.1 NNW 0.0 0.1
01:45 9.5 96.9 1010.4 2.4 NW 6.7 WNW 0.0 0.1
01:50 9.5 96.9 1010.3 2.0 NW 4.2 NNW 0.0 0.1
01:55 9.4 96.9 1010.4 2.2 N 4.6 N 0.0 0.1
02:00 9.1 96.5 1010.3 0.0 W 1.4 W 0.0 0.1
02:05 9.1 97.1 1010.3 3.1 NNW 6.0 NNW 0.0 0.1
02:10 9.3 97.2 1010.4 2.7 NNW 5.3 NNW 0.0 0.1
02:15 9.2 96.8 1010.4 2.3 NNW 4.2 N 0.0 0.1
02:20 9.1 96.9 1010.4 0.6 NNW 2.5 NNW 0.0 0.1
02:25 9.0 97.0 1010.4 1.9 NNW 3.9 N 0.0 0.1
02:30 8.9 97.1 1010.4 3.7 NW 6.4 NNW 0.0 0.1
02:35 9.1 97.4 1010.4 2.0 NNW 5.3 NNW 0.0 0.1
02:40 8.9 96.9 1010.4 0.9 N 4.2 NNW 0.0 0.1
02:45 8.7 96.8 1010.5 3.8 NNW 5.6 NNW 0.0 0.1
02:50 8.7 97.2 1010.4 0.6 NW 2.8 NW 0.0 0.1
02:55 8.7 97.3 1010.5 1.7 N 4.2 N 0.0 0.1
03:00 8.6 97.2 1010.5 1.1 NNW 3.2 NNW 0.0 0.1
03:05 8.3 96.9 1010.5 0.4 WNW 3.2 WNW 0.0 0.1
03:10 8.6 97.7 1010.6 4.4 NNW 6.4 NNW 0.0 0.1
03:15 8.8 97.6 1010.5 3.8 NNW 6.4 NNW 0.0 0.1
03:20 8.6 97.3 1010.5 3.2 NNW 4.6 NNW 0.0 0.1
03:25 8.7 97.6 1010.5 5.6 NNW 7.8 NNW 0.0 0.1
03:30 8.8 97.6 1010.5 4.5 N 8.5 N 0.0 0.1
03:35 8.8 97.6 1010.4 4.7 NNW 6.7 NNW 0.0 0.1
03:40 8.8 97.6 1010.4 6.3 NNW 7.8 NNW 0.0 0.1
03:45 8.8 97.6 1010.4 4.4 NNW 6.0 NNW 0.0 0.1
03:50 8.7 97.4 1010.3 1.7 NNW 4.6 NNW 0.0 0.1
03:55 8.6 97.5 1010.4 3.5 NNW 4.6 NNW 0.0 0.1
04:00 8.5 97.3 1010.5 3.4 NNW 4.2 NNW 0.0 0.1
04:05 8.4 97.4 1010.4 3.2 N 4.6 N 0.0 0.1
04:10 8.3 97.5 1010.4 4.3 NNW 7.1 NNW 0.0 0.1
04:15 8.3 97.5 1010.5 2.5 NNW 4.9 NNW 0.0 0.1
04:20 8.2 97.7 1010.5 4.1 NNW 5.3 NW 0.0 0.2
04:25 8.4 97.9 1010.5 4.2 NNW 5.6 NNW 0.0 0.6
04:30 8.3 97.7 1010.5 3.1 NNW 6.4 NNW 0.0 1.4
Máxima 10.0 97.9 1010.6 6.3 NNW 8.5 N 0.1 1.4
Mínima 8.2 95.8 1010.3
Total 0.1